Location: Gunnison Valley Observatory
(38.5087°N, 106.9386°W)
Time: 04:43:45
(UTC-06:00)

Amateur Radio Satellites - All Passes

Search period start: 26 July 2017 04:13
Search period end: 27 July 2017 04:13
Location: Gunnison Valley Observatory, 38.5087°N, 106.9386°W

Satellite Date Start Highest point End Downlink Frequencies (MHz)
Time Altitude Azimuth
BEESAT 26 Jul 04:21:30 04:25:32 27° 264° (W) 04:29:34 436.000
AO-7 26 Jul 04:22:56 04:31:06 54° 102° (ESE) 04:39:10 .
Gurwin Techsat 1B 26 Jul 04:29:09 04:32:35 18° 297° (WNW) 04:36:02 435.225
nSIGHT-1 26 Jul 04:30:59 04:33:42 25° 227° (SW) 04:36:26 .
ITUPSAT 1 26 Jul 04:36:08 04:39:38 20° 266° (W) 04:43:08 437.325
STARS 26 Jul 04:37:08 04:39:27 14° 64° (ENE) 04:41:48 437.465
PCSat 26 Jul 05:25:37 05:31:03 85° 297° (WNW) 05:36:31 145.827
KKS-1 26 Jul 05:44:42 05:48:57 42° 261° (W) 05:53:13 437.445
ITAMSAT 1 26 Jul 05:47:42 05:51:55 26° 294° (WNW) 05:56:07 435.822/435.867
CUBESAT XI-V 26 Jul 05:50:40 05:54:11 22° 266° (W) 05:57:44 437.345
DOVE 4 26 Jul 05:55:05 05:59:38 30° 94° (E) 06:04:01 437.250
CUTE-I 26 Jul 06:06:00 06:07:42 11° 90° (E) 06:09:23 437.470
YUBILEINY 26 Jul 06:06:49 06:15:28 60° 79° (ENE) 06:24:01 435.215
STARS 26 Jul 06:11:00 06:15:19 52° 259° (W) 06:19:41 437.465
XW-2C 26 Jul 06:14:34 06:16:16 13° 92° (E) 06:17:56 145.795 - 145.815
AO-7 26 Jul 06:16:15 06:23:28 34° 300° (WNW) 06:30:40 .
KAITUO 1B 26 Jul 06:33:06 06:35:29 16° 94° (E) 06:37:51 145.475/437.950
LilacSat-2 26 Jul 06:38:00 06:41:14 27° 96° (E) 06:44:30 437.200
SO-50 26 Jul 06:38:21 06:42:54 85° 301° (WNW) 06:47:26 436.795
XW-2F 26 Jul 06:49:57 06:53:23 33° 98° (E) 06:56:48 145.980 - 146.000
PCSat 26 Jul 07:12:27 07:15:16 14° 317° (NW) 07:18:04 145.827
XW-2D 26 Jul 07:19:20 07:23:07 87° 284° (WNW) 07:26:53 145.860 - 145.880
STRAND 1 26 Jul 07:29:15 07:34:18 60° 73° (ENE) 07:39:23 437.568
XW-2B 26 Jul 07:29:28 07:33:13 66° 284° (WNW) 07:36:57 145.730 - 145.750
DOVE 4 26 Jul 07:32:39 07:37:13 31° 291° (WNW) 07:41:38 437.250
CUTE-I 26 Jul 07:42:56 07:48:18 79° 286° (WNW) 07:53:37 437.470
XW-2C 26 Jul 07:47:05 07:50:35 38° 287° (WNW) 07:54:05 145.795 - 145.815
NUDT-PHONESAT 26 Jul 07:49:44 07:53:17 47° 285° (WNW) 07:56:49 437.300
FO-29 26 Jul 08:00:52 08:04:50 15° 55° (NE) 08:08:49 435.910
HO-68 26 Jul 08:01:09 08:07:58 46° 100° (E) 08:14:44 435.675
YUBILEINY 26 Jul 08:04:40 08:11:35 27° 278° (W) 08:18:29 435.215
KAITUO 1B 26 Jul 08:06:15 08:09:30 29° 288° (WNW) 08:12:45 145.475/437.950
LilacSat-2 26 Jul 08:12:39 08:15:19 18° 291° (WNW) 08:17:59 437.200
SO-50 26 Jul 08:22:22 08:24:03 12° 320° (NW) 08:25:44 436.795
XW-2F 26 Jul 08:25:04 08:27:12 15° 292° (WNW) 08:29:22 145.980 - 146.000
CUBEBUG 2 26 Jul 08:27:56 08:31:55 39° 98° (E) 08:35:47 437.445
CUTE 1.7 + AOD 2 26 Jul 08:34:48 08:39:04 80° 283° (WNW) 08:43:19 437.475
AO-73 26 Jul 08:38:41 08:40:46 14° 92° (E) 08:42:51 145.935
SEEDS 26 Jul 08:44:30 08:48:45 82° 103° (ESE) 08:52:59 437.485
XW-2A 26 Jul 08:47:22 08:50:43 84° 281° (W) 08:54:02 145.665 - 145.685
TIGRISAT 26 Jul 08:58:53 09:00:03 11° 63° (ENE) 09:01:13 435.000
STRAND 1 26 Jul 09:10:58 09:13:50 15° 268° (W) 09:16:43 437.568
PRISM 26 Jul 09:22:20 09:24:49 16° 66° (ENE) 09:27:19 437.425
UWE-3 26 Jul 09:23:02 09:27:13 79° 285° (WNW) 09:31:20 435.000/436.395/437.385
AAUSAT CUBESAT 2 26 Jul 09:24:08 09:28:19 77° 284° (WNW) 09:32:29 437.432
ZACube-1 26 Jul 09:33:43 09:37:51 72° 101° (ESE) 09:41:58 437.345
FO-29 26 Jul 09:40:53 09:48:27 72° 73° (ENE) 09:56:19 435.910
UNISAT 6 26 Jul 09:47:59 09:52:18 40° 72° (ENE) 09:56:34 437.425
HO-68 26 Jul 09:49:15 09:55:26 33° 297° (WNW) 10:01:38 435.675
Oscar 11 26 Jul 09:57:20 10:01:40 90° 117° (ESE) 10:05:59 .
CUBEBUG 2 26 Jul 10:05:36 10:08:10 16° 294° (WNW) 10:10:43 437.445
M-CUBED/EXP-1 PRIME 26 Jul 10:09:40 10:12:56 31° 65° (ENE) 10:16:27 437.505
AO-73 26 Jul 10:13:17 10:17:12 42° 287° (WNW) 10:21:05 145.935
DELFI C3 26 Jul 10:14:27 10:18:03 31° 97° (E) 10:21:38 145.870
NO-84 26 Jul 10:17:34 10:20:00 24° 127° (SE) 10:22:35 435.350 FM
EO-88 26 Jul 10:21:36 10:24:29 22° 95° (E) 10:27:21 145.990 - 145.960
TIGRISAT 26 Jul 10:31:28 10:36:06 75° 257° (WSW) 10:40:42 435.000
PRISM 26 Jul 10:55:55 10:59:45 39° 261° (W) 11:03:38 437.425
UNISAT 6 26 Jul 11:25:53 11:29:06 19° 266° (W) 11:32:20 437.425
DUCHIFAT 1 26 Jul 11:26:51 11:29:56 20° 68° (ENE) 11:33:01 145.980
FO-29 26 Jul 11:28:18 11:34:00 23° 270° (W) 11:39:54 435.910
POLYITAN 1 26 Jul 11:30:57 11:34:34 28° 70° (ENE) 11:38:12 437.675
AIST 2D 26 Jul 11:32:39 11:36:05 65° 76° (ENE) 11:39:33 435.315
QB50P2 26 Jul 11:43:37 11:47:38 42° 73° (ENE) 11:51:41 145.880/145.840
M-CUBED/EXP-1 PRIME 26 Jul 11:45:11 11:47:30 16° 263° (W) 11:49:55 437.505
DELFI C3 26 Jul 11:49:49 11:52:33 18° 292° (WNW) 11:55:18 145.870
BUGSAT 1 26 Jul 11:52:07 11:53:02 11° 63° (ENE) 11:53:57 437.445
LO-87 26 Jul 11:54:08 11:57:32 39° 98° (E) 12:00:53 145.935 - 145.965
NANOSAT C BR1 26 Jul 11:54:08 11:58:11 45° 73° (ENE) 12:02:14 145.865
NO-84 26 Jul 11:54:50 11:57:23 24° 326° (NW) 12:00:05 435.350 FM
EO-79 26 Jul 11:54:59 11:59:07 52° 74° (ENE) 12:03:17 145.935-145.965
EO-88 26 Jul 11:55:17 11:58:02 20° 290° (WNW) 12:00:46 145.990 - 145.960
BEESAT 3 26 Jul 12:06:13 12:09:41 29° 114° (ESE) 12:13:12 437.485
AO-85 26 Jul 12:11:30 12:15:08 33° 115° (ESE) 12:18:42 145.980
SPROUT 26 Jul 12:36:13 12:39:01 17° 93° (E) 12:41:50 437.525
BEESAT 2 26 Jul 12:49:31 12:52:57 29° 113° (ESE) 12:56:26 435.950
ESTCUBE 1 26 Jul 12:52:42 12:57:13 71° 285° (WNW) 13:01:43 437.505/2401.250
DUCHIFAT 1 26 Jul 13:01:33 13:05:22 32° 263° (W) 13:09:11 145.980
POLYITAN 1 26 Jul 13:06:54 13:10:18 23° 265° (W) 13:13:42 437.675
QB50P2 26 Jul 13:21:09 13:23:36 15° 268° (W) 13:26:02 145.880/145.840
BUGSAT 1 26 Jul 13:23:36 13:27:49 66° 259° (W) 13:32:02 437.445
LO-87 26 Jul 13:29:16 13:30:33 12° 294° (WNW) 13:31:51 145.935 - 145.965
Oscar 19 26 Jul 13:29:18 13:34:16 54° 72° (ENE) 13:39:16 437.125/150
VELOX 1 26 Jul 13:31:40 13:36:06 63° 101° (E) 13:40:30 145.980
NANOSAT C BR1 26 Jul 13:31:55 13:34:06 14° 268° (W) 13:36:17 145.865
DX 1 26 Jul 13:33:09 13:36:14 18° 94° (E) 13:39:17 434.975-435.025
AO-7 26 Jul 13:33:12 13:37:01 14° 48° (NE) 13:40:50 .
EO-79 26 Jul 13:33:29 13:35:09 12° 269° (W) 13:36:50 145.935-145.965
BEESAT 3 26 Jul 13:44:01 13:47:15 23° 310° (NW) 13:50:32 437.485
RS-15 26 Jul 13:46:04 13:50:44 13° 94° (E) 13:55:26 29.354- 29.394
AO-85 26 Jul 13:52:37 13:55:34 20° 311° (NW) 13:58:30 145.980
Gurwin Techsat 1B 26 Jul 14:07:26 14:12:45 80° 75° (ENE) 14:18:05 435.225
SPROUT 26 Jul 14:11:07 14:15:02 36° 288° (WNW) 14:18:54 437.525
UKube-1 26 Jul 14:11:51 14:15:46 32° 98° (E) 14:19:39 .
PCSat 26 Jul 14:14:59 14:20:20 55° 59° (ENE) 14:25:37 145.827
50 SAT 26 Jul 14:15:37 14:19:05 83° 281° (WNW) 14:22:29 437.505
BEESAT 2 26 Jul 14:27:24 14:30:40 24° 310° (NW) 14:33:59 435.950
ITUPSAT 1 26 Jul 15:01:47 15:02:50 11° 90° (E) 15:03:52 437.325
O/OREOS (USA 219) 26 Jul 15:05:31 15:09:50 48° 106° (ESE) 15:14:08 437.305
DX 1 26 Jul 15:08:28 15:12:29 36° 289° (WNW) 15:16:29 434.975-435.025
VELOX 1 26 Jul 15:10:15 15:11:59 12° 297° (WNW) 15:13:42 145.980
Oscar 19 26 Jul 15:10:45 15:13:54 16° 268° (W) 15:17:02 437.125/150
SO-50 26 Jul 15:10:52 15:15:21 55° 56° (NE) 15:19:51 436.795
AO-7 26 Jul 15:19:57 15:28:10 65° 68° (ENE) 15:36:26 .
ITAMSAT 1 26 Jul 15:24:12 15:29:14 50° 71° (ENE) 15:34:17 435.822/435.867
MOZHAYETS 4 26 Jul 15:32:07 15:35:16 18° 93° (E) 15:38:24
UKube-1 26 Jul 15:48:20 15:51:33 21° 293° (WNW) 15:54:46 .
RS-15 26 Jul 15:48:47 16:00:44 67° 114° (ESE) 16:12:54 29.354- 29.394
Gurwin Techsat 1B 26 Jul 15:51:43 15:53:15 11° 270° (W) 15:54:48 435.225
PCSat 26 Jul 15:59:34 16:03:13 19° 255° (WSW) 16:06:52 145.827
BEESAT 26 Jul 16:21:57 16:26:43 84° 103° (ESE) 16:31:28 436.000
ITUPSAT 1 26 Jul 16:36:22 16:41:06 71° 286° (WNW) 16:45:49 437.325
O/OREOS (USA 219) 26 Jul 16:46:41 16:49:29 16° 303° (WNW) 16:52:18 437.305
NO-84 26 Jul 16:51:26 16:53:58 17° 30° (NNE) 16:56:36 435.350 FM
SO-50 26 Jul 16:52:49 16:55:20 15° 251° (WSW) 16:57:52 436.795
DOVE 4 26 Jul 16:58:48 17:02:48 25° 67° (ENE) 17:06:58 437.250
ITAMSAT 1 26 Jul 17:05:21 17:08:56 19° 267° (W) 17:12:32 435.822/435.867
MOZHAYETS 4 26 Jul 17:08:18 17:12:32 39° 288° (WNW) 17:16:47
AO-7 26 Jul 17:14:42 17:21:23 26° 265° (W) 17:28:08 .
YUBILEINY 26 Jul 17:16:10 17:18:54 12° 74° (ENE) 17:21:37 435.215
LilacSat-2 26 Jul 17:20:18 17:21:39 12° 66° (ENE) 17:22:59 437.200
CUTE-I 26 Jul 17:25:26 17:29:03 19° 63° (ENE) 17:32:39 437.470
XW-2F 26 Jul 17:30:43 17:32:39 14° 67° (ENE) 17:34:35 145.980 - 146.000
KKS-1 26 Jul 17:36:50 17:41:02 39° 99° (E) 17:45:11 437.445
CUBESAT XI-V 26 Jul 17:47:03 17:51:44 81° 284° (WNW) 17:56:25 437.345
XW-2D 26 Jul 17:59:05 18:02:29 33° 73° (ENE) 18:05:52 145.860 - 145.880
STARS 26 Jul 18:01:54 18:05:46 29° 97° (E) 18:09:35 437.465
RS-15 26 Jul 18:02:41 18:14:02 41° 317° (NW) 18:25:31 29.354- 29.394
BEESAT 26 Jul 18:03:10 18:03:46 10° 300° (WNW) 18:04:22 436.000
XW-2B 26 Jul 18:09:01 18:12:34 43° 74° (ENE) 18:16:08 145.730 - 145.750
XW-2C 26 Jul 18:26:14 18:29:59 77° 76° (ENE) 18:33:44 145.795 - 145.815
NUDT-PHONESAT 26 Jul 18:27:00 18:30:36 54° 75° (ENE) 18:34:11 437.300
NO-84 26 Jul 18:27:55 18:31:49 83° 228° (SW) 18:35:59 435.350 FM
HO-68 26 Jul 18:28:45 18:34:47 30° 62° (ENE) 18:40:47 435.675
DOVE 4 26 Jul 18:35:47 18:40:14 35° 264° (W) 18:44:56 437.250
KAITUO 1B 26 Jul 18:43:57 18:47:38 83° 256° (WSW) 18:51:20 145.475/437.950
Tancredo 1 26 Jul 18:50:14 18:52:14 17° 131° (SE) 18:54:13 437.200
LilacSat-2 26 Jul 18:51:53 18:55:30 44° 261° (W) 18:59:07 437.200
XW-2F 26 Jul 19:03:00 19:06:27 35° 262° (W) 19:09:54 145.980 - 146.000
CUTE-I 26 Jul 19:03:21 19:08:36 56° 259° (W) 19:13:54 437.470
YUBILEINY 26 Jul 19:05:14 19:14:00 73° 93° (E) 19:22:47 435.215
KKS-1 26 Jul 19:14:10 19:17:16 19° 294° (WNW) 19:20:21 437.445
XW-2A 26 Jul 19:17:29 19:20:11 23° 71° (ENE) 19:22:53 145.665 - 145.685
CUBEBUG 2 26 Jul 19:24:06 19:28:11 30° 70° (ENE) 19:32:12 437.445
CUTE 1.7 + AOD 2 26 Jul 19:25:36 19:29:43 57° 75° (ENE) 19:33:50 437.475
nSIGHT-1 26 Jul 19:33:12 19:35:30 18° 131° (SE) 19:37:49 .
SEEDS 26 Jul 19:34:28 19:38:24 44° 73° (ENE) 19:42:22 437.485
AO-73 26 Jul 19:34:32 19:35:11 10° 64° (ENE) 19:35:50 145.935
XW-2D 26 Jul 19:34:44 19:36:45 14° 267° (W) 19:38:47 145.860 - 145.880
STARS 26 Jul 19:38:28 19:41:56 23° 292° (WNW) 19:45:23 437.465
STRAND 1 26 Jul 19:41:56 19:45:54 22° 94° (E) 19:49:50 437.568
XW-2B 26 Jul 19:45:57 19:46:57 11° 269° (W) 19:47:58 145.730 - 145.750
AAUSAT CUBESAT 2 26 Jul 20:12:22 20:16:22 54° 74° (ENE) 20:20:24 437.432
HO-68 26 Jul 20:15:12 20:22:08 51° 259° (W) 20:29:07 435.675
UWE-3 26 Jul 20:17:44 20:22:16 68° 76° (ENE) 20:26:43 435.000/436.395/437.385
RS-15 26 Jul 20:23:12 20:31:23 19° 350° (N) 20:39:29 29.354- 29.394
Tancredo 1 26 Jul 20:24:40 20:27:24 36° 326° (NNW) 20:30:10 437.200
BEESAT 3 26 Jul 20:25:00 20:27:05 14° 45° (NE) 20:29:10 437.485
ZACube-1 26 Jul 20:27:33 20:31:48 46° 74° (ENE) 20:35:57 437.345
ISS 26 Jul 20:27:59 20:31:13 72° 138° (SE) 20:34:27 437.550
AO-85 26 Jul 20:43:21 20:46:42 22° 50° (NE) 20:50:12 145.980
Oscar 11 26 Jul 20:50:18 20:54:29 55° 75° (ENE) 20:58:42 .
XW-2A 26 Jul 20:50:39 20:52:52 16° 266° (W) 20:55:05 145.665 - 145.685
DELFI C3 26 Jul 20:59:23 21:01:42 15° 67° (ENE) 21:04:04 145.870
CUBEBUG 2 26 Jul 21:00:54 21:04:45 25° 265° (W) 21:08:32 437.445
YUBILEINY 26 Jul 21:04:56 21:11:36 23° 293° (WNW) 21:18:19 435.215
CUTE 1.7 + AOD 2 26 Jul 21:05:12 21:05:53 10° 270° (W) 21:06:34 437.475
AO-73 26 Jul 21:06:25 21:10:50 71° 258° (WSW) 21:15:10 145.935
nSIGHT-1 26 Jul 21:08:36 21:11:41 41° 326° (NNW) 21:14:47 .
BEESAT 2 26 Jul 21:09:03 21:11:14 14° 45° (NE) 21:13:24 435.950
SEEDS 26 Jul 21:12:15 21:14:18 13° 268° (W) 21:16:21 437.485
STRAND 1 26 Jul 21:20:26 21:25:10 39° 290° (WNW) 21:29:52 437.568
AAUSAT CUBESAT 2 26 Jul 21:51:18 21:52:08 10° 270° (W) 21:52:57 437.432
UWE-3 26 Jul 21:58:24 21:59:04 10° 270° (W) 21:59:45 435.000/436.395/437.385
BEESAT 3 26 Jul 22:01:06 22:05:03 60° 242° (WSW) 22:08:54 437.485
ISS 26 Jul 22:05:43 22:07:59 17° 336° (NNW) 22:10:16 437.550
ZACube-1 26 Jul 22:05:49 22:08:15 14° 268° (W) 22:10:41 437.345
AO-85 26 Jul 22:23:10 22:27:09 37° 244° (WSW) 22:31:23 145.980
TIGRISAT 26 Jul 22:25:07 22:28:34 23° 95° (E) 22:31:59 435.000
Oscar 11 26 Jul 22:29:30 22:30:56 11° 269° (W) 22:32:22 .
LO-87 26 Jul 22:29:57 22:31:53 14° 67° (ENE) 22:33:49 145.935 - 145.965
EO-88 26 Jul 22:30:23 22:33:58 60° 260° (W) 22:37:35 145.990 - 145.960
DELFI C3 26 Jul 22:32:31 22:36:08 36° 262° (W) 22:39:49 145.870
FO-29 26 Jul 22:38:26 22:45:26 72° 102° (ESE) 22:51:32 435.910
PRISM 26 Jul 22:38:29 22:42:09 29° 97° (E) 22:45:46 437.425
RS-15 26 Jul 22:40:33 22:50:10 25° 27° (NNE) 22:59:27 29.354- 29.394
BEESAT 2 26 Jul 22:45:22 22:49:22 61° 242° (WSW) 22:53:18 435.950
nSIGHT-1 26 Jul 22:47:44 22:48:47 11° 345° (NNW) 22:49:49 .
UNISAT 6 26 Jul 23:17:22 23:21:41 76° 284° (WNW) 23:25:55 437.425
M-CUBED/EXP-1 PRIME 26 Jul 23:22:45 23:27:02 35° 102° (ESE) 23:31:16 437.505
SPROUT 26 Jul 23:29:26 23:31:03 12° 64° (ENE) 23:32:40 437.525
ESTCUBE 1 26 Jul 23:50:21 23:54:49 86° 74° (ENE) 23:59:19 437.505/2401.250
TIGRISAT 27 Jul 00:01:37 00:05:12 26° 291° (WNW) 00:08:45 435.000
LO-87 27 Jul 00:01:41 00:04:59 33° 262° (W) 00:08:20 145.935 - 145.965
PRISM 27 Jul 00:14:04 00:17:14 21° 292° (WNW) 00:20:23 437.425
FO-29 27 Jul 00:24:49 00:29:33 20° 302° (WNW) 00:33:59 435.910
VELOX 1 27 Jul 00:27:11 00:31:24 45° 72° (ENE) 00:35:39 145.980
DX 1 27 Jul 00:28:05 00:30:26 14° 64° (ENE) 00:32:46 434.975-435.025
JUGNU 27 Jul 00:29:34 00:31:49 12° 180° (S) 00:34:04 437.505
AIST 2D 27 Jul 00:31:54 00:35:24 80° 283° (WNW) 00:38:53 435.315
50 SAT 27 Jul 00:45:46 00:48:35 24° 71° (ENE) 00:51:24 437.505
DUCHIFAT 1 27 Jul 00:46:27 00:50:24 40° 99° (E) 00:54:19 145.980
POLYITAN 1 27 Jul 00:51:59 00:56:09 62° 101° (E) 01:00:17 437.675
RS-15 27 Jul 00:53:19 01:05:27 70° 55° (NE) 01:16:52 29.354- 29.394
M-CUBED/EXP-1 PRIME 27 Jul 00:57:28 01:01:12 24° 297° (WNW) 01:04:55 437.505
SPROUT 27 Jul 01:02:10 01:06:25 59° 260° (W) 01:10:40 437.525
UKube-1 27 Jul 01:05:06 01:08:31 24° 68° (ENE) 01:11:58 .
QB50P2 27 Jul 01:05:09 01:09:23 82° 281° (WNW) 01:13:33 145.880/145.840
BUGSAT 1 27 Jul 01:07:40 01:10:33 19° 94° (E) 01:13:24 437.445
Tancredo 1 27 Jul 01:14:25 01:16:28 17° 25° (NNE) 01:18:31 437.200
NANOSAT C BR1 27 Jul 01:15:04 01:19:16 78° 283° (WNW) 01:23:26 145.865
EO-79 27 Jul 01:16:28 01:20:39 67° 284° (WNW) 01:24:47 145.935-145.965
O/OREOS (USA 219) 27 Jul 01:16:40 01:21:10 73° 68° (ENE) 01:25:40 437.305
ISS 27 Jul 01:21:47 01:23:15 12° 17° (NNE) 01:24:43 437.550
Oscar 19 27 Jul 01:42:58 01:46:52 21° 94° (E) 01:50:45 437.125/150
nSIGHT-1 27 Jul 02:01:24 02:03:51 20° 26° (NNE) 02:06:18 .
DX 1 27 Jul 02:01:55 02:06:09 50° 260° (W) 02:10:25 434.975-435.025
VELOX 1 27 Jul 02:05:33 02:08:04 15° 268° (W) 02:10:35 145.980
ITUPSAT 1 27 Jul 02:07:02 02:08:55 12° 62° (ENE) 02:10:48 437.325
50 SAT 27 Jul 02:19:12 02:21:17 15° 266° (W) 02:23:23 437.505
DUCHIFAT 1 27 Jul 02:23:14 02:25:42 16° 294° (WNW) 02:28:11 145.980
Gurwin Techsat 1B 27 Jul 02:25:24 02:30:15 35° 97° (E) 02:35:05 435.225
POLYITAN 1 27 Jul 02:30:18 02:31:22 11° 297° (WNW) 02:32:26 437.675
MOZHAYETS 4 27 Jul 02:33:13 02:35:56 16° 65° (ENE) 02:38:38
UKube-1 27 Jul 02:40:42 02:44:24 28° 263° (W) 02:48:08 .
BUGSAT 1 27 Jul 02:42:21 02:45:56 30° 289° (WNW) 02:49:29 437.445
Tancredo 1 27 Jul 02:49:11 02:52:04 55° 222° (SW) 02:54:57 437.200
ISS 27 Jul 02:57:08 03:00:20 51° 36° (NE) 03:03:31 437.550
RS-15 27 Jul 03:07:00 03:16:52 32° 257° (WSW) 03:26:21 29.354- 29.394
Oscar 19 27 Jul 03:21:27 03:26:19 42° 290° (WNW) 03:31:10 437.125/150
SRMSAT 27 Jul 03:23:02 03:25:11 12° 180° (S) 03:27:20 437.500
AO-7 27 Jul 03:24:34 03:30:38 22° 93° (E) 03:36:38 .
BEESAT 27 Jul 03:26:34 03:31:20 82° 74° (ENE) 03:36:08 436.000
nSIGHT-1 27 Jul 03:37:17 03:40:28 55° 223° (SW) 03:43:37 .
ITAMSAT 1 27 Jul 03:39:25 03:43:06 19° 94° (E) 03:46:44 435.822/435.867
ITUPSAT 1 27 Jul 03:41:20 03:46:06 72° 257° (WSW) 03:50:54 437.325
